Regional Weather Roundup
Issued by NWS

Home | Current Version | Previous Version | Graphics & Text | Print | Product List | Glossary On
Versions: 1 2 3 4 5 6 7 8 9 10 11 12 13 14 15 16 17 18 19 20 21 22 23 24 25 26 27 28 29 30 31 32 33 34 35 36 37 38 39 40 41 42 43 44 45 46 47 48 49 50
968
ASUS44 KMEG 290300
RWRTN
TENNESSEE HOURLY STATE WEATHER ROUNDUP
NATIONAL WEATHER SERVICE MEMPHIS TN
1000 PM CDT THU JUL 28 2016

TNZ002-004-019-021-049-052-054-088>092-290400-
WEST TENNESSEE

CITY           SKY/WX    TMP DP  RH WIND       PRES   REMARKS
MEMPHIS INTL   CLOUDY    80  75  84 S10       29.96R
NWS MEMPHIS      N/A     79 N/A N/A MISG        N/A
JACKSON        CLOUDY    79  76  90 S6        29.95R
DYERSBURG      CLOUDY   N/A N/A N/A MISG        N/A
UNION CITY     CLEAR     73  70  88 CALM      29.92S
PARIS          CLEAR     77  73  88 SW5       29.94R
LEXINGTON      CLEAR     79  75  89 SW6       29.95S
$$

TNZ008-025-027-028-033-062-065-066-290400-
NORTH MIDDLE TENNESSEE

CITY           SKY/WX    TMP DP  RH WIND       PRES   REMARKS
NASHVILLE      MOCLDY    78  74  87 S5        29.95S
CLARKSVILLE    MOCLDY    79  75  87 S3        29.93R
COOKEVILLE     CLOUDY    73  73 100 S3        29.98S
CROSSVILLE     CLOUDY    71  70  96 SW3       30.04R
$$

TNZ061-075-076-078-094-096-097-290400-
SOUTH MIDDLE TENNESSEE

CITY           SKY/WX    TMP DP  RH WIND       PRES   REMARKS
TULLAHOMA      PTCLDY    70  70 100 CALM      30.01S
WINCHESTER     MOCLDY    72  72 100 CALM      30.01R
MCMINNVILLE    CLOUDY    75  75 100 SW6       30.00S
COLUMBIA       CLEAR    N/A N/A N/A S5        29.96S
SHELBYVILLE    MOCLDY    75  73  94 S3        30.00S
$$

TNZ017-018-042-046-047-290400-
NORTHEAST TENNESSEE

CITY           SKY/WX    TMP DP  RH WIND       PRES   REMARKS
TRI CITIES     LGT RAIN  71  69  93 CALM      29.97S
$$

TNZ012-013-036-069-073-074-290400-
CENTRAL EAST TENNESSEE

CITY           SKY/WX    TMP DP  RH WIND       PRES   REMARKS
KNOXVILLE      CLOUDY    75  71  87 W5        29.97S
OAK RIDGE      CLOUDY    74  71  91 S3        29.99S
GATLINBURG     CLOUDY    73  72  94 W3        29.98R
$$

TNZ083-085-099-290400-
SOUTHEAST TENNESSEE

CITY           SKY/WX    TMP DP  RH WIND       PRES   REMARKS
CHATTANOOGA    CLOUDY    77  71  82 SW6       29.99R
$$

SKY/WX REPORTED AS FAIR MEANS FEW OR NO CLOUDS BELOW
12 THOUSAND FEET.





USA.gov is the U.S. government's official web portal to all federal, state and local government web resources and services.